TimePDT,TemperatureF,Dew PointF,Humidity,Sea Level PressureIn,VisibilityMPH,Wind Direction,Wind SpeedMPH,Gust SpeedMPH,PrecipitationIn,Events,Conditions,WindDirDegrees,DateUTC
12:53 AM,55.0,50.0,83,30.02,6.0,Calm,Calm,-,N/A,,Haze,0,2013-08-06 07:53:00
1:31 AM,53.6,50.0,88,30.01,5.0,WNW,3.5,-,N/A,,Overcast,290,2013-08-06 08:31:00
1:53 AM,54.0,50.0,86,30.02,5.0,NW,3.5,-,N/A,,Overcast,310,2013-08-06 08:53:00
2:53 AM,54.0,50.0,86,30.01,3.0,NNW,4.6,-,N/A,,Overcast,330,2013-08-06 09:53:00
2:57 AM,53.6,50.0,88,30.01,1.8,NNW,3.5,-,N/A,,Overcast,340,2013-08-06 09:57:00
3:02 AM,53.6,50.0,88,30.01,0.8,Calm,Calm,-,N/A,,Overcast,0,2013-08-06 10:02:00
3:53 AM,53.1,50.0,89,30.01,0.8,NW,3.5,-,N/A,,Mist,320,2013-08-06 10:53:00
4:04 AM,53.6,50.0,88,30.01,1.2,Calm,Calm,-,N/A,,Overcast,0,2013-08-06 11:04:00
4:13 AM,53.6,51.8,94,30.01,1.5,Calm,Calm,-,N/A,,Overcast,0,2013-08-06 11:13:00
4:30 AM,53.6,50.0,88,30.01,3.0,Calm,Calm,-,N/A,,Overcast,0,2013-08-06 11:30:00
4:53 AM,54.0,51.1,90,30.01,4.0,Calm,Calm,-,N/A,,Overcast,0,2013-08-06 11:53:00
5:28 AM,53.6,50.0,88,30.01,7.0,Calm,Calm,-,N/A,,Overcast,0,2013-08-06 12:28:00
5:48 AM,53.6,50.0,88,30.01,3.0,Calm,Calm,-,N/A,,Overcast,0,2013-08-06 12:48:00
5:53 AM,54.0,50.0,86,30.02,3.0,Calm,Calm,-,N/A,,Overcast,0,2013-08-06 12:53:00
6:42 AM,55.4,51.8,88,30.02,2.5,Calm,Calm,-,N/A,,Overcast,0,2013-08-06 13:42:00
6:53 AM,55.0,51.1,86,30.02,3.0,Calm,Calm,-,N/A,,Overcast,0,2013-08-06 13:53:00
7:53 AM,55.9,51.1,84,30.04,7.0,NE,3.5,-,N/A,,Overcast,40,2013-08-06 14:53:00
8:53 AM,57.0,52.0,83,30.04,9.0,Calm,Calm,-,N/A,,Overcast,0,2013-08-06 15:53:00
9:37 AM,60.8,51.8,72,30.03,9.0,Variable,5.8,-,N/A,,Overcast,0,2013-08-06 16:37:00
9:53 AM,63.0,53.1,70,30.04,9.0,Calm,Calm,-,N/A,,Overcast,0,2013-08-06 16:53:00
10:43 AM,66.2,53.6,64,30.03,9.0,WNW,5.8,-,N/A,,Scattered Clouds,300,2013-08-06 17:43:00
10:53 AM,66.9,54.0,63,30.03,9.0,West,5.8,-,N/A,,Clear,260,2013-08-06 17:53:00
11:53 AM,68.0,54.0,61,30.03,9.0,SW,11.5,-,N/A,,Clear,230,2013-08-06 18:53:00
12:53 PM,66.9,54.0,63,30.04,9.0,WSW,10.4,-,N/A,,Clear,250,2013-08-06 19:53:00
1:53 PM,66.0,54.0,65,30.04,9.0,WSW,9.2,-,N/A,,Clear,240,2013-08-06 20:53:00
2:53 PM,68.0,54.0,61,30.03,10.0,SW,5.8,-,N/A,,Clear,220,2013-08-06 21:53:00
3:53 PM,68.0,55.0,63,30.02,10.0,SW,9.2,-,N/A,,Clear,230,2013-08-06 22:53:00
4:53 PM,66.9,55.0,66,30.01,9.0,West,11.5,-,N/A,,Clear,260,2013-08-06 23:53:00
5:53 PM,66.9,54.0,63,30.01,9.0,WNW,6.9,-,N/A,,Clear,290,2013-08-07 00:53:00
6:53 PM,61.0,53.1,75,30.00,10.0,WNW,8.1,-,N/A,,Clear,290,2013-08-07 01:53:00
7:08 PM,60.8,53.6,77,30.00,9.0,NW,5.8,-,N/A,,Partly Cloudy,310,2013-08-07 02:08:00
7:53 PM,59.0,52.0,78,29.99,9.0,WNW,5.8,-,N/A,,Clear,290,2013-08-07 02:53:00
8:36 PM,57.2,51.8,82,30.00,8.0,NW,4.6,-,N/A,,Scattered Clouds,310,2013-08-07 03:36:00
8:53 PM,55.9,52.0,87,30.00,8.0,Calm,Calm,-,N/A,,Mostly Cloudy,0,2013-08-07 03:53:00
9:53 PM,55.9,51.1,84,30.01,8.0,WNW,4.6,-,N/A,,Overcast,300,2013-08-07 04:53:00
10:00 PM,55.4,51.8,88,30.01,9.0,NW,3.5,-,N/A,,Overcast,320,2013-08-07 05:00:00
10:53 PM,55.0,51.1,86,30.01,6.0,WNW,3.5,-,N/A,,Overcast,300,2013-08-07 05:53:00
11:53 PM,55.0,51.1,86,30.01,4.0,Calm,Calm,-,N/A,,Overcast,0,2013-08-07 06:53:00